sat.trackr.live / text

‹ back to catalog

QZS-3 (QZSS/PRN 199)

NORAD 42917 · 2017-048A

PAYLOAD ACTIVE UNKNOWN

§ Identity

Operator
Country
JPN
Launch date
2017-08-19
Launch site
TANSC
Launch vehicle
Mass (kg)
RCS (m²)

Purposes: comms, nav

External: N2YO · Heavens-Above · Gunter

§ Orbital elements

Epoch: 2026-09-20T00:25:08.468832Z

Period
1,436.10 min
Inclination
0.0592°
Eccentricity
0.0001649
Mean motion
1.00271429 rev/d
Perigee alt
35,779.7 km
Apogee alt
35,793.6 km
Semi-major
42,164.8 km
B*
0.0000e+0
RAAN
145.8397°
Arg perigee
9.6300°
Mean anomaly
336.8036°
Rev number
3,321

§ Raw data

QZS-3 (QZSS/PRN 199)1 42917U 17048A   26263.01745913 -.00000352  00000+0  00000+0 0  99912 42917   0.0592 145.8397 0001649   9.6300 336.8036  1.00271429 33210

JSON: /api/v1/satellites/42917 · /tle

For live sub-satellite position, see the globe view (requires WebGL).

§ Visibility from observer

Set your observer location to see the next 7 days of passes ≥ 10°. The values pass through the URL so the page stays shareable.

No JS? Fill the form by hand. The geolocation button needs JavaScript.